Powrót do katalogu

STARLINK-36478

AktywnyŁącznośćVLEO
NORAD 67351·PAYLOAD·🇺🇸 United States

Wystrzelony Jan 9, 2026 z Cape Canaveral Space Force Station

Loading…

Następne Przeloty (najbliższe 24 godziny)

TLE

ŚwieżeSource: CelesTrak SupGP

Epoka: Sep 15, 2026, 03:34 UTC

1 67351C 26003T   26258.14909722 -.00046984  00000+0 -17019-2 0  2580
2 67351  43.0001 236.7758 0001332 270.2817  67.2423 15.27598080    16

Śledź STARLINK-36478 w czasie rzeczywistym z AllMySat

Download on the App Store